This is the latest recevied weather packets stored in our database for station/object WW6Q. If no packets are shown the sender has not sent any weather packets the latest 10 day(s).
| Time | Temp. | Humidity | Pressure | Rain* | Wind** | Luminosity | Snow |
|---|---|---|---|---|---|---|---|
| 1788008113 | 17.78° C | 83% | 1021.9 hPa | 0 mm | - | 81 W/m² | - |
| 1788007812 | 17.78° C | 86% | 1022 hPa | 0 mm | - | 86 W/m² | - |
| 1788007511 | 17.22° C | 87% | 1021.9 hPa | 0 mm | - | 89 W/m² | - |
| 1788007206 | 16.67° C | 88% | 1021.7 hPa | 0 mm | - | 80 W/m² | - |
| 1788006905 | 16.11° C | 94% | 1021.8 hPa | 0 mm | - | 69 W/m² | - |
| 1788006605 | 15.56° C | 99% | 1021.6 hPa | 0 mm | - | 60 W/m² | - |
| 1788006300 | 15° C | 99% | 1021.7 hPa | 0 mm | - | 54 W/m² | - |
| 1788005998 | 14.44° C | 99% | 1021.8 hPa | 0 mm | - | 51 W/m² | - |
| 1788005693 | 13.33° C | 99% | 1021.9 hPa | 0 mm | - | 47 W/m² | - |
| 1788005394 | 12.78° C | 99% | 1021.8 hPa | 0 mm | - | 35 W/m² | - |
| 1788005092 | 12.78° C | 99% | 1022.1 hPa | 0 mm | - | 23 W/m² | - |
| 1788004790 | 12.78° C | 99% | 1022 hPa | 0 mm | - | 18 W/m² | - |
| 1788004486 | 12.78° C | 99% | 1022 hPa | 0 mm | - | 15 W/m² | - |
| 1788004185 | 12.78° C | 99% | 1021.7 hPa | 0 mm | - | 13 W/m² | - |
| 1788003884 | 12.78° C | 99% | 1022 hPa | 0 mm | - | 11 W/m² | - |
| 1788003579 | 12.78° C | 99% | 1021.7 hPa | 0 mm | - | 10 W/m² | - |
| 1788003274 | 12.78° C | 99% | 1021.7 hPa | 0 mm | - | 9 W/m² | - |
| 1788002974 | 12.78° C | 99% | 1021.6 hPa | 0 mm | - | 10 W/m² | - |
| 1788002668 | 12.22° C | 99% | 1021.8 hPa | 0 mm | - | 12 W/m² | - |
| 1788002364 | 12.22° C | 99% | 1021.6 hPa | 0 mm | - | 9 W/m² | - |
| 1788002059 | 12.22° C | 99% | 1021.7 hPa | 0 mm | - | 7 W/m² | - |
| 1788001759 | 12.22° C | 99% | 1021.6 hPa | 0 mm | - | 4 W/m² | - |
| 1788001454 | 12.22° C | 99% | 1021.6 hPa | 0 mm | - | 3 W/m² | - |
| 1788001154 | 12.22° C | 99% | 1021.7 hPa | 0 mm | - | 1 W/m² | - |
| 1788000849 | 12.22° C | 99% | 1021.5 hPa | 0 mm | - | 1 W/m² | - |
* Rain latest hour (hover to see other rain measurements)
** Current wind speed in m/s (hover to see current wind gust speed)